CAPE
970 1120 1290 583 812 1087 1078 541 181 1 0 0 0 0 0 0 0 0 0 0 0 0 0 0 0 0 0 0 0 2 4 2 6 52 161 268 57 0 7 255 442 475 497
789 791 1115 1021 1004 1207 705 183 0 0 0 0 0 0 0 0 0 0 0 0 0 0 0 0 0 0 0 0 0 0 0 0 0 0 0 2 169 230 0 90 211 228 259
560 767 973 1433 1470 913 320 0 0 0 0 0 0 0 0 0 0 0 0 0 0 0 0 0 0 0 0 0 0 0 0 0 0 0 0 0 0 433 0 52 248 315 331
490 768 1036 1626 1095 530 35 0 0 0 0 0 0 0 0 0 0 0 0 0 0 0 0 0 0 0 0 0 0 0 0 0 0 0 0 0 47 83 42 14 74 80 161
515 844 1308 1465 779 205 0 0 0 0 0 0 0 0 0 0 0 0 0 0 0 0 0 0 0 0 0 0 0 0 0 0 0 0 0 0 0 64 49 58 127 368 603
865 1136 1328 1170 406 1 0 0 0 0 0 0 0 0 0 0 0 0 0 0 0 0 0 0 0 0 0 0 0 0 0 0 0 0 0 0 0 0 0 0 0 0 75
981 995 858 789 100 0 0 0 0 0 0 0 0 0 0 0 0 0 0 0 0 0 0 0 0 0 0 0 0 0 0 0 0 0 0 0 0 0 0 0 0 0 0
778 643 378 263 45 0 0 0 0 0 0 0 0 0 0 0 0 0 0 0 0 0 0 0 0 0 0 0 0 0 0 0 0 0 0 0 0 0 0 0 0 0 0
424 138 4 0 0 0 0 0 0 0 0 0 0 0 0 0 0 0 0 0 0 0 0 0 0 0 0 0 0 0 0 0 0 0 0 0 0 0 0 0 0 0 0
22 0 0 0 0 0 0 0 0 0 0 0 0 0 0 0 0 0 0 0 0 0 0 0 0 0 0 0 0 0 0 0 0 0 0 0 0 0 0 0 0 0 0
0 0 0 0 0 0 0 0 0 0 0 0 0 0 0 0 0 0 0 0 0 0 0 0 0 0 0 0 0 0 0 0 0 0 0 0 0 0 0 0 0 0 0
0 0 0 0 0 0 0 0 0 0 0 0 0 0 0 0 0 0 0 0 0 0 0 0 0 0 0 0 0 0 0 0 0 0 0 0 0 0 0 0 0 0 0
0 0 0 0 0 0 0 0 0 0 0 0 0 0 0 0 0 0 0 0 0 0 0 0 0 0 0 0 0 0 0 0 0 0 0 0 0 0 0 0 0 0 3
0 0 0 0 0 0 0 0 0 0 0 0 0 0 0 0 0 0 0 0 0 0 0 0 0 0 0 0 0 0 0 0 0 0 0 0 0 0 0 8 9 16 26
0 0 0 0 0 0 0 0 0 0 0 0 0 0 0 0 0 0 0 0 0 0 0 0 0 0 0 0 0 0 0 0 0 0 0 0 0 0 0 3 16 14 14
0 0 0 0 0 0 0 0 0 0 0 0 0 0 0 0 0 0 0 0 0 0 0 0 0 0 0 0 0 0 0 0 0 0 0 0 0 1 7 5 3 6 2
0 0 0 0 0 0 0 0 0 0 0 0 0 0 0 0 0 0 0 0 0 0 0 0 0 0 0 0 0 0 0 0 0 0 0 0 0 0 3 0 4 3 3
0 0 0 0 0 0 0 0 0 0 0 0 0 0 0 0 0 0 0 0 0 0 0 0 0 0 0 0 0 0 0 0 0 0 0 0 0 0 0 0 0 0 5
0 0 0 0 0 0 0 0 0 0 0 0 0 0 0 0 0 0 0 0 0 0 0 0 0 0 0 0 0 0 0 0 0 0 0 0 0 0 0 0 0 0 6
0 0 0 0 0 0 0 0 0 0 0 0 0 0 0 0 0 0 0 0 0 0 0 0 0 0 0 0 0 0 0 0 0 0 0 0 0 0 0 0 0 0 8
0 0 0 0 0 0 0 0 0 0 0 0 0 0 0 0 0 0 0 0 0 0 0 0 0 0 0 0 0 0 0 0 0 0 0 0 0 0 0 0 0 0 0
0 0 0 0 0 0 0 0 0 0 0 0 0 0 0 0 0 0 0 0 0 0 0 0 0 0 0 0 0 0 0 0 0 0 0 0 0 0 0 0 0 0 0
0 0 0 0 0 0 0 0 0 0 0 0 0 0 0 0 0 0 0 0 0 0 0 0 0 0 0 0 0 0 0 0 0 0 0 0 0 0 0 0 0 0 0
0 0 0 0 0 0 0 0 0 0 0 0 0 0 0 0 0 0 0 0 0 0 0 0 0 0 0 0 0 0 0 0 0 0 0 0 0 0 0 0 0 0 0
0 0 0 0 0 0 0 0 0 0 0 0 0 0 0 0 0 0 0 0 0 0 0 0 0 0 0 0 0 0 0 0 0 0 0 0 0 0 0 0 0 0 0
0 0 0 0 0 0 0 0 0 0 0 0 0 0 0 0 0 0 0 0 0 0 0 0 0 0 0 0 0 0 0 0 0 0 0 0 0 0 0 0 0 0 0
CIN
-61 -33 -2 -137 -59 -26 -27 -98 -218 -15 -0 -0 -0 -0 -0 -0 -0 -0 -0 -0 -0 -0 -0 -0 -0 -0 -0 -0 -0 -0 -0 -0 -226 -108 -62 -23 -158 -0 -135 -36 -3 -2 -1
-151 -124 -23 -38 -47 -26 -90 -248 -0 -0 -0 -0 -0 -0 -0 -0 -0 -0 -0 -0 -0 -0 -0 -0 -0 -0 -0 -0 -0 -0 -0 -0 -0 -0 -0 -336 -98 -76 -0 -130 -72 -44 -27
-245 -148 -68 -11 -10 -71 -213 -262 -0 -0 -0 -0 -0 -0 -0 -0 -0 -0 -0 -0 -0 -0 -0 -0 -0 -0 -0 -0 -0 -0 -0 -0 -0 -0 -0 -0 -0 -35 -0 -117 -84 -43 -19
-293 -161 -70 -2 -48 -160 -390 -0 -0 -0 -0 -0 -0 -0 -0 -0 -0 -0 -0 -0 -0 -0 -0 -0 -0 -0 -0 -0 -0 -0 -0 -0 -0 -0 -0 -0 -128 -181 -180 -146 -183 -145 -75
-286 -152 -41 -17 -114 -301 -0 -0 -0 -0 -0 -0 -0 -0 -0 -0 -0 -0 -0 -0 -0 -0 -0 -0 -0 -0 -0 -0 -0 -0 -0 -0 -0 -0 -0 -0 -0 -24 -29 -24 -138 -15 -1
-186 -90 -46 -58 -239 -95 -0 -0 -0 -0 -0 -0 -0 -0 -0 -0 -0 -0 -0 -0 -0 -0 -0 -0 -0 -0 -0 -0 -0 -0 -0 -0 -0 -0 -0 -0 -0 -0 -0 -0 -0 -2 -143
-157 -130 -142 -139 -413 -0 -0 -0 -0 -0 -0 -0 -0 -0 -0 -0 -0 -0 -0 -0 -0 -0 -0 -0 -0 -0 -0 -0 -0 -0 -0 -0 -0 -0 -0 -0 -0 -0 -0 -0 -0 -0 -0
-233 -245 -318 -342 -478 -0 -0 -0 -0 -0 -0 -0 -0 -0 -0 -0 -0 -0 -0 -0 -0 -0 -0 -0 -0 -0 -0 -0 -0 -0 -0 -0 -0 -0 -0 -0 -0 -0 -0 -0 -0 -0 -0
-353 -502 -130 -0 -0 -0 -0 -0 -0 -0 -0 -0 -0 -0 -0 -0 -0 -0 -0 -0 -0 -0 -0 -0 -0 -0 -0 -0 -0 -0 -0 -0 -0 -0 -0 -0 -0 -0 -0 -0 -0 -0 -0
-605 -0 -0 -0 -0 -0 -0 -0 -0 -0 -0 -0 -0 -0 -0 -0 -0 -0 -0 -0 -0 -0 -0 -0 -0 -0 -0 -0 -0 -0 -0 -0 -0 -0 -0 -0 -0 -0 -0 -0 -0 -0 -0
-0 -0 -0 -0 -0 -0 -0 -0 -0 -0 -0 -0 -0 -0 -0 -0 -0 -0 -0 -0 -0 -0 -0 -0 -0 -0 -0 -0 -0 -0 -0 -0 -0 -0 -0 -0 -0 -0 -0 -0 -0 -0 -0
-0 -0 -0 -0 -0 -0 -0 -0 -0 -0 -0 -0 -0 -0 -0 -0 -0 -0 -0 -0 -0 -0 -0 -0 -0 -0 -0 -0 -0 -0 -0 -0 -0 -0 -0 -0 -0 -0 -0 -0 -0 -0 -0
-0 -0 -0 -0 -0 -0 -0 -0 -0 -0 -0 -0 -0 -0 -0 -0 -0 -0 -0 -0 -0 -0 -0 -0 -0 -0 -0 -0 -0 -0 -0 -0 -0 -0 -0 -0 -0 -0 -0 -0 -0 -0 -0
-0 -0 -0 -0 -0 -0 -0 -0 -0 -0 -0 -0 -0 -0 -0 -0 -0 -0 -0 -0 -0 -0 -0 -0 -0 -0 -0 -0 -0 -0 -0 -0 -0 -0 -0 -0 -0 -0 -0 -0 -0 -0 -0
-0 -0 -0 -0 -0 -0 -0 -0 -0 -0 -0 -0 -0 -0 -0 -0 -0 -0 -0 -0 -0 -0 -0 -0 -0 -0 -0 -0 -0 -0 -0 -0 -0 -0 -0 -0 -0 -0 -0 -1 -0 -0 -0
-0 -0 -0 -0 -0 -0 -0 -0 -0 -0 -0 -0 -0 -0 -0 -0 -0 -0 -0 -0 -0 -0 -0 -0 -0 -0 -0 -0 -0 -0 -0 -0 -0 -0 -0 -0 -0 -5 -0 -0 -0 -0 -0
-0 -0 -0 -0 -0 -0 -0 -0 -0 -0 -0 -0 -0 -0 -0 -0 -0 -0 -0 -0 -0 -0 -0 -0 -0 -0 -0 -0 -0 -0 -0 -0 -0 -0 -0 -0 -0 -1 -2 -0 -0 -0 -0
-0 -0 -0 -0 -0 -0 -0 -0 -0 -0 -0 -0 -0 -0 -0 -0 -0 -0 -0 -0 -0 -0 -0 -0 -0 -0 -0 -0 -0 -0 -0 -0 -0 -0 -0 -0 -0 -0 -0 -0 -0 -0 -0
-0 -0 -0 -0 -0 -0 -0 -0 -0 -0 -0 -0 -0 -0 -0 -0 -0 -0 -0 -0 -0 -0 -0 -0 -0 -0 -0 -0 -0 -0 -0 -0 -0 -0 -0 -0 -0 -0 -0 -0 -0 -0 -3
-0 -0 -0 -0 -0 -0 -0 -0 -0 -0 -0 -0 -0 -0 -0 -0 -0 -0 -0 -0 -0 -0 -0 -0 -0 -0 -0 -0 -0 -0 -0 -0 -0 -0 -0 -0 -0 -0 -0 -0 -0 -0 -4
-0 -0 -0 -0 -0 -0 -0 -0 -0 -0 -0 -0 -0 -0 -0 -0 -0 -0 -0 -0 -0 -0 -0 -0 -0 -0 -0 -0 -0 -0 -0 -0 -0 -0 -0 -0 -0 -0 -0 -0 -0 -0 -0
-0 -0 -0 -0 -0 -0 -0 -0 -0 -0 -0 -0 -0 -0 -0 -0 -0 -0 -0 -0 -0 -0 -0 -0 -0 -0 -0 -0 -0 -0 -0 -0 -0 -0 -0 -0 -0 -0 -0 -0 -0 -0 -0
-0 -0 -0 -0 -0 -0 -0 -0 -0 -0 -0 -0 -0 -0 -0 -0 -0 -0 -0 -0 -0 -0 -0 -0 -0 -0 -0 -0 -0 -0 -0 -0 -0 -0 -0 -0 -0 -0 -0 -0 -0 -0 -0
-0 -0 -0 -0 -0 -0 -0 -0 -0 -0 -0 -0 -0 -0 -0 -0 -0 -0 -0 -0 -0 -0 -0 -0 -0 -0 -0 -0 -0 -0 -0 -0 -0 -0 -0 -0 -0 -0 -0 -0 -0 -0 -0
-0 -0 -0 -0 -0 -0 -0 -0 -0 -0 -0 -0 -0 -0 -0 -0 -0 -0 -0 -0 -0 -0 -0 -0 -0 -0 -0 -0 -0 -0 -0 -0 -0 -0 -0 -0 -0 -0 -0 -0 -0 -0 -0
-0 -0 -0 -0 -0 -0 -0 -0 -0 -0 -0 -0 -0 -0 -0 -0 -0 -0 -0 -0 -0 -0 -0 -0 -0 -0 -0 -0 -0 -0 -0 -0 -0 -0 -0 -0 -0 -0 -0 -0 -0 -0 -0
Wind_Speed
5 9 15 15 13 11 14 13 13 11 11 10 10 10 10 11 11 11 11 12 12 11 12 11 11 11 11 11 10 10 9 9 9 9 9 8 6 5 2 1 3 5 3
12 10 15 14 13 14 14 13 12 11 10 10 10 10 10 11 11 11 11 12 12 12 12 12 12 12 12 12 11 10 10 10 11 11 10 8 9 7 4 1 1 3 3
14 11 11 13 14 15 14 13 12 11 10 10 10 10 10 10 10 11 11 11 11 11 11 11 11 11 11 11 11 11 11 12 13 13 13 5 6 8 5 2 1 3 4
15 11 10 14 16 14 13 13 12 11 11 10 10 10 9 9 10 10 10 10 10 11 11 11 11 11 11 11 11 11 12 13 14 15 7 6 5 5 2 2 1 4 5
14 12 10 16 15 14 13 12 12 11 10 10 10 9 9 9 10 10 10 10 10 10 10 10 10 10 10 10 10 11 11 13 15 11 7 7 4 7 8 8 7 8 8
14 11 14 15 15 14 12 12 11 11 10 10 10 9 9 9 9 10 10 10 10 10 10 10 10 10 10 10 11 12 12 12 12 7 6 7 6 7 9 10 10 9 10
12 11 11 15 15 13 12 11 11 10 10 9 9 9 8 9 9 9 9 10 10 10 10 10 11 11 11 11 11 11 12 12 7 7 6 6 5 8 9 9 9 9 9
14 11 11 12 12 12 11 10 10 9 9 9 8 8 7 7 7 8 9 9 9 10 11 11 12 12 12 12 12 11 11 11 6 6 6 5 6 7 8 8 8 9 9
13 12 9 7 9 11 10 9 9 8 8 8 7 6 4 4 5 7 7 9 9 10 10 11 12 12 13 12 13 12 12 11 6 4 6 3 5 8 9 9 9 8 8
11 11 9 7 7 7 6 9 8 8 7 6 5 2 1 1 2 6 5 5 6 7 7 8 10 12 13 14 15 9 11 12 6 5 3 1 6 9 11 10 9 9 8
9 10 9 8 7 6 6 7 8 8 6 5 3 2 2 0 2 4 2 2 3 6 9 8 11 13 10 11 12 10 9 3 5 3 2 4 8 11 9 9 9 9 9
8 8 9 7 8 7 6 6 6 4 3 3 2 2 2 3 2 2 2 3 6 7 10 8 11 12 8 4 4 7 3 4 4 4 1 5 9 11 9 8 8 8 8
7 6 8 7 8 9 5 4 3 2 3 3 5 3 3 3 3 3 1 2 2 3 3 5 6 4 6 5 5 4 5 4 3 3 3 5 9 10 9 8 7 7 8
8 8 7 7 7 5 4 4 4 3 3 2 3 4 3 2 3 3 2 3 3 3 4 4 3 5 6 7 5 6 5 4 2 2 3 3 6 9 8 7 8 9 10
9 8 8 7 6 5 4 3 4 3 3 4 3 3 3 3 3 2 3 3 3 3 3 4 4 5 6 6 6 6 6 4 3 2 1 4 5 8 10 11 12 11 11
10 10 8 8 7 6 4 4 3 4 4 3 3 3 4 3 2 3 3 3 3 2 3 3 3 4 4 5 6 6 6 5 5 3 3 4 6 9 10 11 10 10 10
11 10 9 8 7 7 7 5 4 4 4 3 3 3 4 3 2 3 1 2 1 2 4 4 5 4 5 5 5 5 5 5 5 5 4 4 4 7 8 11 10 11 10
11 10 8 7 8 7 6 5 4 4 3 3 3 3 3 2 3 2 2 2 2 3 2 3 3 4 4 4 4 5 4 4 5 5 5 4 4 4 5 10 7 9 11
11 11 8 8 8 7 6 4 4 5 3 3 3 3 3 3 2 3 2 1 2 3 3 2 2 2 3 4 5 4 4 2 3 3 5 4 5 4 4 8 9 7 9
9 9 9 6 7 7 5 5 3 3 2 2 3 3 3 2 3 3 2 2 2 3 3 3 2 3 1 3 4 4 4 2 2 3 4 3 4 5 5 5 4 4 9
8 9 8 9 7 5 2 3 2 3 2 1 3 4 3 1 2 3 2 2 2 2 2 3 2 4 3 4 4 4 3 3 2 1 1 2 4 4 5 4 3 3 4
10 9 8 8 7 5 3 2 3 3 2 2 2 3 3 2 1 2 3 2 1 2 4 3 3 3 2 4 2 1 4 4 4 3 2 2 2 3 4 4 5 4 3
9 9 9 8 8 6 5 4 3 4 3 2 1 0 1 2 2 2 2 2 2 2 2 1 1 3 2 2 5 3 3 2 4 3 3 3 4 2 2 3 4 5 2
8 8 9 8 8 6 7 4 4 3 3 3 3 2 2 3 2 2 2 1 2 1 2 1 2 1 2 2 2 3 0 2 1 5 3 3 5 2 3 2 3 4 2
8 8 8 8 7 7 6 6 4 3 2 2 2 4 2 2 3 3 3 2 1 1 1 1 1 1 1 2 1 1 2 1 0 2 4 5 4 2 3 3 1 2 2
6 7 7 8 7 7 6 6 6 5 4 3 2 2 2 2 2 3 3 3 3 3 2 1 1 0 0 1 1 1 1 1 1 0 2 3 4 4 4 3 3 1 1
Wind_Direction
142 139 138 135 128 120 108 100 94 90 86 82 75 70 65 59 57 53 47 43 41 39 37 34 31 29 27 25 26 25 17 14 8 356 347 328 317 311 314 346 10 23 66
135 137 136 133 129 122 109 105 101 96 87 79 73 72 70 65 61 54 51 45 40 36 34 33 32 31 26 25 21 17 11 2 352 342 332 326 298 268 255 251 334 327 328
130 133 132 132 126 116 115 112 107 97 87 78 73 72 69 64 58 51 47 45 42 36 33 33 33 29 24 20 15 11 2 355 347 338 328 312 283 269 215 211 256 302 300
131 133 136 132 123 122 120 115 106 97 90 83 78 72 66 60 55 48 49 46 43 39 38 33 29 26 22 17 10 5 359 352 347 341 335 316 335 169 188 196 298 295 294
133 137 136 128 125 125 124 117 109 103 95 89 80 70 65 59 50 49 49 48 42 36 29 27 22 19 14 8 3 358 354 350 345 348 336 334 4 35 25 8 359 346 321
123 126 130 127 129 128 126 119 113 107 99 89 81 71 63 60 58 56 51 42 35 27 21 17 12 7 3 359 354 351 348 346 342 336 337 339 13 13 4 353 348 333 323
119 122 125 129 133 132 127 121 116 110 102 92 82 72 66 67 59 51 47 39 28 18 13 10 5 2 358 353 349 346 342 339 339 334 331 336 348 1 354 350 339 329 321
129 127 126 129 132 130 128 124 120 115 106 94 82 72 67 66 66 56 43 33 24 16 9 5 1 357 354 348 347 344 339 335 331 320 315 334 11 3 354 346 336 327 325
130 125 120 123 127 124 126 127 126 120 110 97 87 78 82 89 83 69 52 30 23 12 6 3 358 357 357 351 342 329 331 335 337 309 311 335 346 350 344 337 330 327 324
135 130 136 137 136 132 138 132 123 124 115 115 112 134 137 57 64 81 69 32 17 5 1 353 354 354 350 344 342 320 316 331 332 315 307 268 8 348 340 334 328 329 326
136 143 149 156 155 148 145 147 140 140 148 155 154 255 30 273 243 173 167 43 328 335 346 332 344 345 334 335 337 333 317 328 332 343 343 21 4 350 341 336 330 329 328
141 145 161 162 158 157 162 157 158 168 169 183 196 259 76 163 236 133 31 291 314 327 350 355 352 3 3 346 337 347 348 340 352 352 341 26 6 357 349 343 337 333 328
150 142 156 151 150 162 155 168 169 169 180 193 160 122 40 24 2 22 29 352 342 24 12 5 358 355 348 347 344 339 341 342 352 345 318 24 14 5 357 350 347 341 332
153 158 145 135 127 112 136 154 162 171 157 114 139 115 86 29 27 26 45 20 26 5 14 4 353 338 343 343 341 340 333 334 338 334 343 12 19 14 4 14 17 14 10
164 155 150 143 134 135 120 105 122 140 106 135 126 110 97 67 49 24 26 33 20 6 18 359 356 349 347 349 343 352 339 357 333 324 6 324 27 24 25 18 14 17 9
159 157 150 143 150 150 141 149 136 123 130 111 98 123 95 102 70 58 24 8 25 4 359 4 354 353 343 358 343 349 345 359 4 350 34 24 37 34 31 29 22 19 7
160 150 153 150 152 155 156 136 133 138 111 116 123 113 105 97 78 75 29 12 343 9 9 4 358 358 354 347 344 345 350 8 14 24 62 65 44 31 30 32 34 29 15
146 150 150 143 151 145 156 140 130 127 118 135 122 99 120 125 118 79 30 358 324 16 2 3 357 344 350 354 335 337 331 21 21 26 49 49 39 34 9 24 19 23 20
149 144 143 145 154 149 149 122 129 133 117 144 106 99 92 53 108 94 61 347 41 23 13 9 348 4 345 333 316 331 334 11 20 33 41 36 40 32 17 18 23 8 22
137 139 137 140 146 144 128 111 95 104 104 126 111 128 95 94 73 70 33 32 40 41 1 17 2 336 315 307 324 337 306 291 33 27 38 30 28 34 22 15 13 354 11
133 136 144 141 160 139 119 117 108 168 164 105 127 135 111 114 76 72 52 23 44 64 5 16 356 6 342 330 8 342 353 324 356 18 32 45 17 25 30 18 353 13 355
149 149 146 152 158 160 143 159 154 154 149 146 144 122 135 106 93 88 84 55 47 77 45 36 38 351 339 11 29 34 8 338 352 312 338 6 6 20 19 8 355 347 30
148 153 154 158 163 164 155 117 75 65 54 63 51 106 213 156 154 109 83 93 78 125 102 90 56 63 7 321 22 114 16 330 327 331 318 306 352 5 338 354 355 344 57
166 148 153 158 159 155 154 138 134 151 161 209 179 168 187 179 161 145 113 98 110 125 98 130 130 98 99 23 348 26 106 166 10 332 328 336 340 318 309 319 348 345 95
147 157 155 147 152 151 153 147 149 160 178 155 125 149 182 208 194 180 161 139 135 124 114 134 33 26 102 125 136 357 1 343 179 181 287 313 327 295 264 270 294 350 81
130 130 139 142 154 152 154 157 168 176 161 134 146 175 225 224 217 206 186 174 187 177 179 190 171 231 223 162 167 151 167 196 271 270 287 295 265 292 279 242 232 217 180